This is the latest recevied weather packets stored in our database for station/object N4ASP-13. If no packets are shown the sender has not sent any weather packets the latest 10 day(s).
| Time | Temp. | Humidity | Pressure | Rain* | Wind** | Luminosity | Snow |
|---|---|---|---|---|---|---|---|
| 1777585729 | 18.89° C | 41% | 1010.8 hPa | 0 mm | - | 454 W/m² | - |
| 1777585668 | 18.89° C | 41% | 1010.8 hPa | 0 mm | - | 457 W/m² | - |
| 1777585609 | 18.89° C | 41% | 1010.8 hPa | 0 mm | - | 461 W/m² | - |
| 1777585549 | 18.89° C | 39% | 1010.8 hPa | 0 mm | - | 469 W/m² | - |
| 1777585487 | 18.89° C | 41% | 1010.7 hPa | 0 mm | - | 473 W/m² | - |
| 1777585424 | 18.89° C | 41% | 1010.8 hPa | 0 mm | - | 475 W/m² | - |
| 1777585364 | 18.89° C | 41% | 1010.8 hPa | 0 mm | - | 478 W/m² | - |
| 1777585304 | 18.89° C | 42% | 1010.8 hPa | 0 mm | - | 482 W/m² | - |
| 1777585243 | 18.89° C | 41% | 1010.8 hPa | 0 mm | - | 489 W/m² | - |
| 1777585181 | 18.89° C | 42% | 1010.8 hPa | 0 mm | - | 492 W/m² | - |
| 1777585116 | 18.89° C | 42% | 1010.8 hPa | 0 mm | - | 494 W/m² | - |
| 1777585057 | 18.89° C | 41% | 1010.8 hPa | 0 mm | - | 508 W/m² | - |
| 1777584996 | 18.89° C | 42% | 1010.8 hPa | 0 mm | - | 508 W/m² | - |
| 1777584937 | 18.89° C | 42% | 1010.8 hPa | 0 mm | - | 527 W/m² | - |
| 1777584875 | 18.89° C | 41% | 1010.8 hPa | 0 mm | - | 527 W/m² | - |
| 1777584806 | 18.89° C | 40% | 1010.9 hPa | 0 mm | - | 533 W/m² | - |
| 1777584748 | 18.89° C | 39% | 1010.9 hPa | 0 mm | - | 534 W/m² | - |
| 1777584686 | 18.89° C | 39% | 1010.9 hPa | 0 mm | - | 536 W/m² | - |
| 1777584628 | 18.89° C | 40% | 1010.8 hPa | 0 mm | - | 538 W/m² | - |
| 1777584564 | 18.89° C | 42% | 1010.8 hPa | 0 mm | - | 540 W/m² | - |
| 1777584502 | 18.89° C | 39% | 1010.7 hPa | 0 mm | - | 540 W/m² | - |
| 1777584439 | 18.89° C | 40% | 1010.8 hPa | 0 mm | - | 541 W/m² | - |
| 1777584379 | 18.89° C | 40% | 1010.8 hPa | 0 mm | - | 545 W/m² | - |
| 1777584320 | 18.89° C | 41% | 1010.8 hPa | 0 mm | - | 550 W/m² | - |
| 1777584258 | 18.89° C | 40% | 1010.7 hPa | 0 mm | - | 554 W/m² | - |
* Rain latest hour (hover to see other rain measurements)
** Current wind speed in m/s (hover to see current wind gust speed)